| time (UTC) | temp F | wind direction | speed knots | gust knots | rain 1hr in | rain 24hr in | rain mn in | humidity % | barometer mb |
| 20260507061010 | 49 | 271 | 0.9 | 3.5 | 0.00 | 0.37 | 0.00 | 90 | 1006.2 |
| 20260507060507 | 49 | 271 | 1.7 | 3.5 | 0.00 | 0.37 | 0.00 | 91 | 1006.2 |
| 20260507060016 | 50 | 270 | 1.7 | 2.6 | 0.00 | 0.37 | 0.00 | 90 | 1006.1 |
| 20260507055510 | 50 | 275 | 0.9 | 2.6 | 0.00 | 0.37 | 0.00 | 90 | 1006.0 |
| 20260507055005 | 50 | 277 | 0.9 | 2.6 | 0.00 | 0.37 | 0.00 | 90 | 1006.0 |
| 20260507054518 | 50 | 278 | 0.9 | 2.6 | 0.00 | 0.37 | 0.00 | 90 | 1006.0 |
| 20260507054007 | 50 | 275 | 0.9 | 2.6 | 0.00 | 0.37 | 0.00 | 90 | 1006.1 |
| 20260507053513 | 50 | 269 | 0.9 | 2.6 | 0.00 | 0.37 | 0.00 | 90 | 1005.9 |
| 20260507053024 | 50 | 284 | 0.9 | 2.6 | 0.00 | 0.37 | 0.00 | 91 | 1006.1 |
| 20260507052510 | 50 | 277 | 1.7 | 2.6 | 0.00 | 0.37 | 0.00 | 91 | 1006.2 |
| 20260507052013 | 51 | 281 | 0.9 | 2.6 | 0.00 | 0.37 | 0.00 | 91 | 1006.1 |
| 20260507051511 | 51 | 281 | 0.9 | 2.6 | 0.00 | 0.37 | 0.00 | 91 | 1006.1 |
| 20260507051002 | 51 | 290 | 0.9 | 3.5 | 0.00 | 0.37 | 0.00 | 90 | 1005.9 |
| 20260507050502 | 51 | 272 | 0.9 | 3.5 | 0.00 | 0.37 | 0.00 | 90 | 1005.9 |
| 20260507050010 | 51 | 277 | 0.9 | 1.7 | 0.00 | 0.37 | 0.00 | 91 | 1005.9 |
| 20260507045506 | 51 | 275 | 0.0 | 1.7 | 0.00 | 0.37 | 0.00 | 91 | 1006.2 |
| 20260507045006 | 51 | 284 | 0.0 | 1.7 | 0.00 | 0.37 | 0.00 | 91 | 1006.2 |
| 20260507044538 | 51 | 284 | 0.9 | 1.7 | 0.00 | 0.37 | 0.00 | 92 | 1006.3 |
| 20260507044007 | 52 | 259 | 0.0 | 2.6 | 0.00 | 0.37 | 0.00 | 92 | 1006.2 |
| 20260507043502 | 52 | 259 | 0.0 | 2.6 | 0.00 | 0.37 | 0.00 | 92 | 1006.1 |
| 20260507043004 | 52 | 290 | 0.9 | 3.5 | 0.00 | 0.37 | 0.00 | 92 | 1005.9 |
| 20260507042504 | 52 | 296 | 0.0 | 3.5 | 0.00 | 0.37 | 0.00 | 92 | 1005.9 |
| 20260507042002 | 52 | 277 | 0.0 | 1.7 | 0.00 | 0.37 | 0.00 | 92 | 1005.8 |
| 20260507041510 | 52 | 277 | 0.9 | 2.6 | 0.00 | 0.37 | 0.00 | 92 | 1005.9 |
| 20260507041002 | 52 | 277 | 0.9 | 2.6 | 0.00 | 0.37 | 0.00 | 92 | 1005.9 |
| 20260507040504 | 53 | 282 | 0.0 | 1.7 | 0.00 | 0.37 | 0.00 | 92 | 1005.8 |
| 20260507040014 | 53 | 288 | 0.0 | 1.7 | 0.00 | 0.37 | 0.00 | 92 | 1005.6 |
| 20260507035504 | 53 | 286 | 0.0 | 2.6 | 0.00 | 0.37 | 0.37 | 92 | 1005.6 |
| 20260507035007 | 53 | 286 | 0.9 | 2.6 | 0.00 | 0.37 | 0.37 | 92 | 1005.6 |
| 20260507034516 | 53 | 287 | 0.9 | 5.2 | 0.00 | 0.37 | 0.37 | 91 | 1005.6 |
| 20260507034007 | 54 | 292 | 0.9 | 5.2 | 0.00 | 0.37 | 0.37 | 91 | 1005.6 |
| 20260507033508 | 54 | 279 | 0.9 | 2.6 | 0.00 | 0.37 | 0.37 | 91 | 1005.5 |
| 20260507033020 | 54 | 277 | 0.9 | 3.5 | 0.00 | 0.37 | 0.37 | 91 | 1005.5 |
| 20260507032509 | 55 | 275 | 0.9 | 3.5 | 0.01 | 0.37 | 0.37 | 91 | 1005.6 |
| 20260507032003 | 55 | 275 | 1.7 | 4.3 | 0.02 | 0.37 | 0.37 | 91 | 1005.7 |
| 20260507031508 | 55 | 270 | 2.6 | 7.0 | 0.02 | 0.37 | 0.37 | 91 | 1005.5 |
| 20260507031004 | 56 | 270 | 2.6 | 7.0 | 0.02 | 0.37 | 0.37 | 92 | 1005.5 |
| 20260507030503 | 56 | 274 | 1.7 | 7.0 | 0.02 | 0.37 | 0.37 | 92 | 1005.5 |
| 20260507030012 | 57 | 286 | 1.7 | 7.0 | 0.02 | 0.37 | 0.37 | 93 | 1005.5 |
| 20260507025502 | 57 | 270 | 1.7 | 3.5 | 0.02 | 0.37 | 0.37 | 93 | 1005.5 |
| 20260507025006 | 58 | 294 | 1.7 | 3.5 | 0.02 | 0.37 | 0.37 | 94 | 1005.3 |
| 20260507024515 | 58 | 285 | 0.9 | 3.5 | 0.02 | 0.37 | 0.37 | 94 | 1005.1 |
| 20260507024006 | 59 | 280 | 1.7 | 2.6 | 0.02 | 0.37 | 0.37 | 94 | 1005.1 |
| 20260507023506 | 59 | 282 | 0.9 | 1.7 | 0.02 | 0.37 | 0.37 | 94 | 1005.0 |
| 20260507023017 | 59 | 232 | 0.0 | 1.7 | 0.02 | 0.37 | 0.37 | 94 | 1004.9 |
| 20260507022507 | 59 | 214 | 0.0 | 1.7 | 0.01 | 0.36 | 0.36 | 94 | 1004.9 |
| 20260507022009 | 59 | 213 | 0.0 | 1.7 | 0.00 | 0.35 | 0.35 | 94 | 1004.9 |
| 20260507021528 | 59 | 214 | 0.0 | 1.7 | 0.00 | 0.35 | 0.35 | 94 | 1004.8 |
| 20260507021005 | 59 | 215 | 0.0 | 1.7 | 0.00 | 0.35 | 0.35 | 94 | 1004.9 |
| 20260507020505 | 59 | 215 | 0.0 | 1.7 | 0.00 | 0.35 | 0.35 | 94 | 1005.0 |
| 20260507020010 | 59 | 215 | 0.0 | 1.7 | 0.00 | 0.35 | 0.35 | 94 | 1005.0 |
| 20260507015502 | 59 | 181 | 0.0 | 1.7 | 0.00 | 0.35 | 0.35 | 94 | 1005.0 |
| 20260507015005 | 59 | 170 | 0.0 | 1.7 | 0.00 | 0.35 | 0.35 | 94 | 1005.0 |
| 20260507014512 | 59 | 190 | 0.0 | 1.7 | 0.00 | 0.35 | 0.35 | 94 | 1005.1 |
| 20260507014006 | 59 | 199 | 0.9 | 1.7 | 0.00 | 0.35 | 0.35 | 94 | 1005.1 |
| 20260507013505 | 59 | 130 | 0.9 | 2.6 | 0.00 | 0.35 | 0.35 | 94 | 1005.2 |
| 20260507013019 | 59 | 198 | 0.9 | 2.6 | 0.00 | 0.35 | 0.35 | 94 | 1005.2 |
| 20260507012508 | 59 | 195 | 0.0 | 1.7 | 0.00 | 0.35 | 0.35 | 94 | 1005.1 |
| 20260507012008 | 59 | 192 | 0.0 | 1.7 | 0.00 | 0.35 | 0.35 | 94 | 1005.1 |
| 20260507011524 | 59 | 178 | 0.0 | 1.7 | 0.00 | 0.35 | 0.35 | 94 | 1005.2 |
| 20260507011012 | 59 | 178 | 0.0 | 1.7 | 0.00 | 0.35 | 0.35 | 94 | 1005.2 |
| 20260507010509 | 59 | 184 | 0.0 | 1.7 | 0.00 | 0.35 | 0.35 | 94 | 1005.2 |
| 20260507010006 | 59 | 170 | 0.0 | 1.7 | 0.00 | 0.35 | 0.35 | 94 | 1005.2 |
| 20260507005503 | 59 | 175 | 0.0 | 1.7 | 0.00 | 0.35 | 0.35 | 94 | 1005.2 |
| 20260507005006 | 59 | 183 | 0.0 | 1.7 | 0.00 | 0.35 | 0.35 | 94 | 1005.1 |
| 20260507004511 | 59 | 208 | 0.0 | 1.7 | 0.00 | 0.35 | 0.35 | 94 | 1005.2 |
| 20260507004005 | 59 | 178 | 0.0 | 2.6 | 0.00 | 0.35 | 0.35 | 94 | 1005.2 |
| 20260507003502 | 59 | 214 | 0.9 | 2.6 | 0.00 | 0.35 | 0.35 | 94 | 1005.2 |
| 20260507003026 | 59 | 167 | 0.9 | 1.7 | 0.00 | 0.35 | 0.35 | 94 | 1005.1 |
| 20260507002506 | 59 | 194 | 0.0 | 2.6 | 0.00 | 0.35 | 0.35 | 94 | 1005.1 |
| 20260507002007 | 59 | 193 | 0.9 | 2.6 | 0.00 | 0.35 | 0.35 | 94 | 1005.0 |
| 20260507001534 | 59 | 180 | 0.9 | 1.7 | 0.00 | 0.35 | 0.35 | 94 | 1004.8 |
| 20260507001007 | 59 | 196 | 0.0 | 2.6 | 0.00 | 0.35 | 0.35 | 93 | 1004.8 |
| 20260507000508 | 59 | 200 | 0.9 | 2.6 | 0.00 | 0.35 | 0.35 | 93 | 1004.9 |
| 20260507000022 | 59 | 175 | 0.9 | 2.6 | 0.00 | 0.35 | 0.35 | 93 | 1004.9 |
| 20260506235507 | 59 | 175 | 0.9 | 2.6 | 0.00 | 0.35 | 0.35 | 93 | 1004.8 |
| 20260506235003 | 59 | 146 | 0.9 | 2.6 | 0.00 | 0.35 | 0.35 | 93 | 1004.8 |
| 20260506234509 | 59 | 176 | 0.9 | 2.6 | 0.00 | 0.35 | 0.35 | 93 | 1004.8 |
| 20260506234005 | 59 | 186 | 0.9 | 2.6 | 0.00 | 0.35 | 0.35 | 93 | 1004.8 |
| 20260506233503 | 59 | 159 | 0.0 | 4.3 | 0.00 | 0.35 | 0.35 | 93 | 1004.8 |
| 20260506233014 | 59 | 208 | 0.9 | 4.3 | 0.00 | 0.35 | 0.35 | 93 | 1004.8 |
| 20260506232503 | 59 | 178 | 0.0 | 2.6 | 0.00 | 0.35 | 0.35 | 93 | 1004.9 |
| 20260506232008 | 59 | 194 | 0.9 | 2.6 | 0.00 | 0.35 | 0.35 | 93 | 1004.9 |
| 20260506231518 | 59 | 145 | 0.9 | 1.7 | 0.00 | 0.35 | 0.35 | 93 | 1005.0 |
| 20260506231007 | 59 | 163 | 0.0 | 1.7 | 0.01 | 0.35 | 0.35 | 93 | 1005.0 |
| 20260506230505 | 59 | 184 | 0.0 | 2.6 | 0.01 | 0.35 | 0.35 | 93 | 1005.0 |
| 20260506230023 | 59 | 175 | 0.9 | 3.5 | 0.01 | 0.35 | 0.35 | 93 | 1005.0 |
| 20260506225507 | 59 | 134 | 0.9 | 3.5 | 0.01 | 0.35 | 0.35 | 93 | 1005.0 |
| 20260506225007 | 59 | 146 | 0.9 | 3.5 | 0.01 | 0.35 | 0.35 | 93 | 1005.0 |
| 20260506224526 | 59 | 211 | 0.0 | 1.7 | 0.01 | 0.35 | 0.35 | 93 | 1005.1 |
| 20260506224007 | 59 | 173 | 0.9 | 5.2 | 0.02 | 0.35 | 0.35 | 93 | 1005.1 |
| 20260506223502 | 59 | 46 | 0.9 | 5.2 | 0.03 | 0.35 | 0.35 | 93 | 1005.2 |
| 20260506223012 | 59 | 180 | 0.9 | 3.5 | 0.03 | 0.35 | 0.35 | 93 | 1005.2 |
| 20260506222504 | 59 | 217 | 0.9 | 2.6 | 0.04 | 0.35 | 0.35 | 93 | 1005.2 |
| 20260506222008 | 60 | 206 | 0.0 | 7.0 | 0.04 | 0.35 | 0.35 | 93 | 1005.2 |
| 20260506221513 | 59 | 151 | 0.9 | 7.0 | 0.05 | 0.35 | 0.35 | 93 | 1005.2 |
| 20260506221007 | 60 | 240 | 0.9 | 5.2 | 0.04 | 0.34 | 0.34 | 93 | 1005.2 |
| 20260506220507 | 60 | 160 | 1.7 | 5.2 | 0.04 | 0.34 | 0.34 | 93 | 1005.3 |
| 20260506220020 | 60 | 150 | 0.9 | 4.3 | 0.04 | 0.34 | 0.34 | 93 | 1005.4 |
| 20260506215507 | 60 | 157 | 0.9 | 4.3 | 0.05 | 0.34 | 0.34 | 93 | 1005.5 |
| 20260506215006 | 60 | 169 | 0.9 | 7.0 | 0.05 | 0.34 | 0.34 | 93 | 1005.5 |
| 20260506214524 | 60 | 185 | 0.9 | 7.0 | 0.05 | 0.34 | 0.34 | 93 | 1005.5 |
| 20260506214015 | 60 | 150 | 1.7 | 7.0 | 0.05 | 0.33 | 0.33 | 93 | 1005.6 |
| 20260506213512 | 60 | 208 | 1.7 | 5.2 | 0.04 | 0.32 | 0.32 | 93 | 1005.6 |
| 20260506213024 | 60 | 190 | 0.9 | 4.3 | 0.05 | 0.32 | 0.32 | 93 | 1005.6 |
| 20260506212504 | 61 | 132 | 1.7 | 7.0 | 0.05 | 0.31 | 0.31 | 93 | 1005.7 |
| 20260506212006 | 61 | 148 | 1.7 | 7.0 | 0.05 | 0.31 | 0.31 | 93 | 1005.6 |
| 20260506211511 | 61 | 125 | 0.9 | 1.7 | 0.05 | 0.30 | 0.30 | 94 | 1005.8 |
| 20260506211006 | 61 | 117 | 0.9 | 4.3 | 0.06 | 0.30 | 0.30 | 93 | 1005.7 |
| 20260506210506 | 61 | 167 | 0.9 | 3.5 | 0.07 | 0.30 | 0.30 | 93 | 1005.8 |
| 20260506210021 | 61 | 173 | 0.9 | 3.5 | 0.07 | 0.30 | 0.30 | 93 | 1005.8 |
| 20260506205509 | 61 | 184 | 0.0 | 4.3 | 0.07 | 0.29 | 0.29 | 94 | 1005.8 |
| 20260506205010 | 61 | 199 | 0.0 | 4.3 | 0.07 | 0.29 | 0.29 | 94 | 1005.8 |
| 20260506204525 | 61 | 129 | 0.9 | 1.7 | 0.07 | 0.29 | 0.29 | 94 | 1005.9 |
| 20260506204008 | 61 | 88 | 0.9 | 1.7 | 0.06 | 0.28 | 0.28 | 94 | 1005.9 |
| 20260506203509 | 61 | 169 | 0.0 | 1.7 | 0.06 | 0.28 | 0.28 | 94 | 1006.0 |
| 20260506203031 | 61 | 165 | 0.0 | 1.7 | 0.06 | 0.27 | 0.27 | 94 | 1006.0 |
| 20260506202509 | 61 | 165 | 0.0 | 1.7 | 0.05 | 0.26 | 0.26 | 93 | 1006.1 |
| 20260506202014 | 61 | 165 | 0.0 | 1.7 | 0.05 | 0.26 | 0.26 | 93 | 1006.1 |
| 20260506201510 | 61 | 165 | 0.0 | 2.6 | 0.05 | 0.25 | 0.25 | 93 | 1006.1 |
| 20260506201004 | 61 | 167 | 0.0 | 2.6 | 0.04 | 0.24 | 0.24 | 93 | 1006.2 |
| 20260506200510 | 61 | 167 | 0.0 | 1.7 | 0.04 | 0.23 | 0.23 | 93 | 1006.1 |
| 20260506200013 | 61 | 131 | 0.0 | 1.7 | 0.05 | 0.23 | 0.23 | 93 | 1006.0 |
| 20260506195507 | 61 | 144 | 0.0 | 1.7 | 0.04 | 0.22 | 0.22 | 93 | 1005.9 |
| 20260506195010 | 61 | 146 | 0.0 | 1.7 | 0.06 | 0.22 | 0.22 | 93 | 1006.0 |
| 20260506194522 | 62 | 146 | 0.0 | 1.7 | 0.08 | 0.22 | 0.22 | 93 | 1006.0 |
| 20260506194009 | 61 | 144 | 0.0 | 1.7 | 0.09 | 0.22 | 0.22 | 93 | 1006.0 |
| 20260506193502 | 61 | 144 | 0.0 | 1.7 | 0.10 | 0.22 | 0.22 | 93 | 1006.0 |
| 20260506193007 | 61 | 224 | 0.0 | 1.7 | 0.10 | 0.21 | 0.21 | 93 | 1006.2 |
| 20260506192503 | 61 | 227 | 0.0 | 1.7 | 0.11 | 0.21 | 0.21 | 92 | 1006.2 |
| 20260506192006 | 61 | 227 | 0.0 | 1.7 | 0.11 | 0.21 | 0.21 | 92 | 1006.3 |
| 20260506191510 | 61 | 228 | 0.0 | 1.7 | 0.11 | 0.20 | 0.20 | 92 | 1006.4 |
| 20260506191006 | 61 | 228 | 0.0 | 1.7 | 0.12 | 0.20 | 0.20 | 92 | 1006.4 |
| 20260506190506 | 61 | 228 | 0.0 | 1.7 | 0.15 | 0.19 | 0.19 | 92 | 1006.6 |
| 20260506190014 | 61 | 228 | 0.0 | 1.7 | 0.18 | 0.18 | 0.18 | 92 | 1006.7 |
| 20260506185506 | 61 | 280 | 0.0 | 1.7 | 0.18 | 0.18 | 0.18 | 92 | 1006.8 |
| 20260506185005 | 62 | 280 | 0.9 | 1.7 | 0.16 | 0.16 | 0.16 | 91 | 1006.9 |
| 20260506184526 | 62 | 249 | 0.9 | 1.7 | 0.14 | 0.14 | 0.14 | 91 | 1006.7 |
| 20260506184007 | 62 | 284 | 0.9 | 1.7 | 0.13 | 0.13 | 0.13 | 91 | 1006.7 |
| 20260506183509 | 62 | 271 | 0.9 | 1.7 | 0.12 | 0.12 | 0.12 | 90 | 1006.7 |
| 20260506183022 | 62 | 240 | 0.0 | 2.6 | 0.11 | 0.11 | 0.11 | 90 | 1006.8 |
| 20260506182509 | 62 | 225 | 0.9 | 2.6 | 0.10 | 0.10 | 0.10 | 89 | 1006.7 |
| 20260506182003 | 62 | 272 | 0.0 | 1.7 | 0.10 | 0.10 | 0.10 | 88 | 1006.8 |
| 20260506181508 | 62 | 280 | 0.0 | 2.6 | 0.09 | 0.09 | 0.09 | 87 | 1006.9 |
| 20260506181003 | 63 | 242 | 1.7 | 3.5 | 0.08 | 0.08 | 0.08 | 84 | 1007.2 |
| 20260506180506 | 65 | 261 | 0.9 | 3.5 | 0.04 | 0.04 | 0.04 | 79 | 1007.0 |
| 20260506180023 | 68 | 244 | 1.7 | 4.3 | 0.00 | 0.00 | 0.00 | 68 | 1006.8 |
| 20260506175507 | 70 | 229 | 1.7 | 7.8 | 0.00 | 0.00 | 0.00 | 60 | 1006.4 |
| 20260506175006 | 70 | 194 | 1.7 | 7.8 | 0.00 | 0.00 | 0.00 | 58 | 1006.3 |
| 20260506174517 | 71 | 254 | 1.7 | 7.8 | 0.00 | 0.00 | 0.00 | 56 | 1006.0 |
| 20260506174005 | 71 | 136 | 2.6 | 7.8 | 0.00 | 0.00 | 0.00 | 56 | 1006.0 |
| 20260506173506 | 72 | 192 | 1.7 | 7.8 | 0.00 | 0.00 | 0.00 | 55 | 1006.0 |
| 20260506173023 | 72 | 178 | 0.9 | 9.6 | 0.00 | 0.00 | 0.00 | 56 | 1006.1 |
| 20260506172509 | 72 | 217 | 1.7 | 9.6 | 0.00 | 0.00 | 0.00 | 55 | 1006.2 |
| 20260506172009 | 72 | 211 | 1.7 | 7.8 | 0.00 | 0.00 | 0.00 | 56 | 1006.4 |
| 20260506171524 | 72 | 155 | 1.7 | 7.0 | 0.00 | 0.00 | 0.00 | 56 | 1006.3 |
| 20260506171003 | 72 | 211 | 1.7 | 7.0 | 0.00 | 0.00 | 0.00 | 56 | 1006.5 |
| 20260506170505 | 72 | 110 | 0.9 | 6.1 | 0.00 | 0.00 | 0.00 | 57 | 1006.6 |
| 20260506170016 | 72 | 229 | 1.7 | 6.1 | 0.00 | 0.00 | 0.00 | 57 | 1006.6 |
| 20260506165506 | 71 | 173 | 2.6 | 5.2 | 0.00 | 0.00 | 0.00 | 57 | 1006.7 |
| 20260506165006 | 71 | 197 | 0.9 | 5.2 | 0.00 | 0.00 | 0.00 | 59 | 1006.8 |
| 20260506164520 | 71 | 126 | 2.6 | 7.0 | 0.00 | 0.00 | 0.00 | 58 | 1007.0 |
| 20260506164009 | 71 | 134 | 1.7 | 7.0 | 0.00 | 0.00 | 0.00 | 58 | 1007.0 |
| 20260506163514 | 71 | 194 | 1.7 | 4.3 | 0.00 | 0.00 | 0.00 | 58 | 1007.1 |
| 20260506163023 | 70 | 184 | 0.9 | 8.7 | 0.00 | 0.00 | 0.00 | 59 | 1007.2 |
| 20260506162509 | 70 | 112 | 2.6 | 8.7 | 0.00 | 0.00 | 0.00 | 58 | 1007.3 |
| 20260506162014 | 71 | 138 | 1.7 | 7.8 | 0.00 | 0.00 | 0.00 | 59 | 1007.3 |
| 20260506161526 | 71 | 171 | 1.7 | 7.8 | 0.00 | 0.00 | 0.00 | 59 | 1007.4 |
| 20260506161010 | 71 | 153 | 1.7 | 5.2 | 0.00 | 0.00 | 0.00 | 60 | 1007.5 |
| 20260506160511 | 70 | 205 | 1.7 | 6.1 | 0.00 | 0.00 | 0.00 | 60 | 1007.6 |
| 20260506160012 | 70 | 180 | 0.9 | 6.1 | 0.00 | 0.00 | 0.00 | 61 | 1007.8 |
| 20260506155505 | 70 | 192 | 2.6 | 7.8 | 0.00 | 0.00 | 0.00 | 60 | 1007.8 |
| 20260506155007 | 70 | 155 | 1.7 | 7.8 | 0.00 | 0.00 | 0.00 | 60 | 1007.9 |
| 20260506154520 | 70 | 128 | 0.9 | 6.1 | 0.00 | 0.00 | 0.00 | 61 | 1008.0 |
| 20260506154006 | 70 | 182 | 0.9 | 3.5 | 0.00 | 0.00 | 0.00 | 62 | 1008.2 |
| 20260506153505 | 70 | 144 | 1.7 | 3.5 | 0.00 | 0.00 | 0.00 | 62 | 1008.4 |
| 20260506153021 | 70 | 162 | 0.0 | 5.2 | 0.00 | 0.00 | 0.00 | 63 | 1008.4 |
| 20260506152506 | 70 | 165 | 0.9 | 5.2 | 0.00 | 0.00 | 0.00 | 63 | 1008.5 |
| 20260506152010 | 69 | 198 | 1.7 | 4.3 | 0.00 | 0.00 | 0.00 | 64 | 1008.4 |
| 20260506151531 | 69 | 139 | 1.7 | 4.3 | 0.00 | 0.00 | 0.00 | 64 | 1008.2 |
| 20260506151014 | 69 | 181 | 0.9 | 3.5 | 0.00 | 0.00 | 0.00 | 64 | 1008.2 |
| 20260506150507 | 68 | 171 | 0.0 | 3.5 | 0.00 | 0.00 | 0.00 | 66 | 1008.4 |
| 20260506150025 | 68 | 185 | 1.7 | 6.1 | 0.00 | 0.00 | 0.00 | 66 | 1008.5 |
| 20260506145517 | 68 | 185 | 0.9 | 6.1 | 0.00 | 0.00 | 0.00 | 66 | 1008.5 |
| 20260506145004 | 67 | 161 | 1.7 | 4.3 | 0.00 | 0.00 | 0.00 | 66 | 1008.5 |
| 20260506144515 | 67 | 161 | 1.7 | 3.5 | 0.00 | 0.00 | 0.00 | 67 | 1008.3 |
| 20260506144003 | 67 | 124 | 1.7 | 5.2 | 0.00 | 0.00 | 0.00 | 67 | 1008.4 |
| 20260506143506 | 67 | 292 | 0.9 | 5.2 | 0.00 | 0.00 | 0.00 | 68 | 1008.5 |
| 20260506143020 | 67 | 171 | 1.7 | 4.3 | 0.00 | 0.00 | 0.00 | 67 | 1008.4 |
| 20260506142510 | 67 | 216 | 0.9 | 2.6 | 0.00 | 0.00 | 0.00 | 67 | 1008.2 |
| 20260506142009 | 68 | 228 | 0.9 | 2.6 | 0.00 | 0.00 | 0.00 | 67 | 1008.1 |
| 20260506141521 | 68 | 150 | 0.9 | 3.5 | 0.00 | 0.00 | 0.00 | 68 | 1008.1 |
| 20260506141008 | 67 | 184 | 1.7 | 4.3 | 0.00 | 0.00 | 0.00 | 68 | 1008.3 |
| 20260506140510 | 66 | 129 | 1.7 | 4.3 | 0.00 | 0.00 | 0.00 | 68 | 1008.3 |
| 20260506140029 | 66 | 183 | 1.7 | 6.1 | 0.00 | 0.00 | 0.00 | 69 | 1008.3 |
| 20260506135510 | 66 | 162 | 0.9 | 6.1 | 0.00 | 0.00 | 0.00 | 69 | 1008.4 |
| 20260506135006 | 66 | 184 | 1.7 | 4.3 | 0.00 | 0.00 | 0.00 | 69 | 1008.4 |
| 20260506134527 | 66 | 159 | 0.9 | 3.5 | 0.00 | 0.00 | 0.00 | 70 | 1008.4 |
| 20260506134003 | 66 | 207 | 1.7 | 3.5 | 0.00 | 0.00 | 0.00 | 70 | 1008.5 |
| 20260506133506 | 66 | 173 | 1.7 | 2.6 | 0.00 | 0.00 | 0.00 | 70 | 1008.6 |
| 20260506133029 | 65 | 142 | 0.9 | 3.5 | 0.00 | 0.00 | 0.00 | 71 | 1008.6 |
| 20260506132509 | 65 | 175 | 0.9 | 3.5 | 0.00 | 0.00 | 0.00 | 70 | 1008.6 |
| 20260506132007 | 65 | 217 | 0.9 | 3.5 | 0.00 | 0.00 | 0.00 | 70 | 1008.5 |
| 20260506131526 | 65 | 170 | 0.0 | 3.5 | 0.00 | 0.00 | 0.00 | 70 | 1008.5 |
| 20260506131007 | 65 | 171 | 0.9 | 4.3 | 0.00 | 0.00 | 0.00 | 70 | 1008.6 |
| 20260506130508 | 65 | 213 | 0.9 | 4.3 | 0.00 | 0.00 | 0.00 | 71 | 1008.7 |
| 20260506130024 | 65 | 181 | 0.9 | 5.2 | 0.00 | 0.00 | 0.00 | 71 | 1008.7 |
| 20260506125508 | 65 | 115 | 1.7 | 5.2 | 0.00 | 0.00 | 0.00 | 71 | 1008.6 |
| 20260506125009 | 64 | 152 | 0.9 | 3.5 | 0.00 | 0.00 | 0.00 | 72 | 1008.5 |
| 20260506124526 | 64 | 196 | 0.9 | 4.3 | 0.00 | 0.00 | 0.00 | 72 | 1008.5 |
| 20260506124011 | 64 | 173 | 1.7 | 6.1 | 0.00 | 0.00 | 0.00 | 72 | 1008.4 |
| 20260506123510 | 64 | 162 | 0.9 | 6.1 | 0.00 | 0.00 | 0.00 | 72 | 1008.6 |
| 20260506123016 | 64 | 167 | 0.9 | 6.1 | 0.00 | 0.00 | 0.00 | 72 | 1008.5 |
| 20260506122508 | 64 | 171 | 1.7 | 3.5 | 0.00 | 0.00 | 0.00 | 72 | 1008.7 |
| 20260506122006 | 64 | 161 | 0.9 | 4.3 | 0.00 | 0.00 | 0.00 | 72 | 1008.8 |
| 20260506121520 | 64 | 169 | 0.9 | 4.3 | 0.00 | 0.00 | 0.00 | 73 | 1008.8 |
| 20260506121012 | 63 | 188 | 0.9 | 1.7 | 0.00 | 0.00 | 0.00 | 74 | 1008.9 |
| 20260506120508 | 63 | 207 | 0.0 | 1.7 | 0.00 | 0.00 | 0.00 | 73 | 1008.9 |
| 20260506120034 | 63 | 201 | 0.9 | 3.5 | 0.00 | 0.00 | 0.00 | 74 | 1008.9 |
| 20260506115509 | 62 | 129 | 0.9 | 3.5 | 0.00 | 0.00 | 0.00 | 74 | 1009.0 |
| 20260506115012 | 62 | 242 | 0.0 | 2.6 | 0.00 | 0.00 | 0.00 | 74 | 1009.0 |
| 20260506114524 | 62 | 163 | 0.9 | 2.6 | 0.00 | 0.00 | 0.00 | 74 | 1009.0 |
| 20260506114009 | 62 | 215 | 0.0 | 1.7 | 0.00 | 0.00 | 0.00 | 74 | 1009.1 |
| 20260506113510 | 62 | 189 | 0.0 | 1.7 | 0.00 | 0.00 | 0.00 | 74 | 1009.0 |
| 20260506113028 | 62 | 211 | 0.0 | 1.7 | 0.00 | 0.00 | 0.00 | 75 | 1009.0 |
| 20260506112507 | 62 | 125 | 0.0 | 4.3 | 0.00 | 0.00 | 0.00 | 75 | 1009.1 |
| 20260506112005 | 62 | 211 | 0.9 | 4.3 | 0.00 | 0.00 | 0.00 | 75 | 1009.2 |
| 20260506111517 | 61 | 178 | 0.9 | 3.5 | 0.00 | 0.00 | 0.00 | 75 | 1009.1 |
| 20260506111007 | 61 | 92 | 1.7 | 3.5 | 0.00 | 0.00 | 0.00 | 75 | 1009.2 |
| 20260506110506 | 61 | 184 | 0.0 | 1.7 | 0.00 | 0.00 | 0.00 | 76 | 1009.5 |
| 20260506110003 | 61 | 152 | 0.0 | 2.6 | 0.00 | 0.00 | 0.00 | 76 | 1009.2 |
| 20260506105503 | 61 | 148 | 0.0 | 2.6 | 0.00 | 0.00 | 0.00 | 76 | 1009.2 |
| 20260506105003 | 61 | 130 | 0.0 | 2.6 | 0.00 | 0.00 | 0.00 | 76 | 1009.3 |
| 20260506104508 | 60 | 148 | 0.9 | 1.7 | 0.00 | 0.00 | 0.00 | 76 | 1009.2 |
| 20260506104003 | 60 | 131 | 0.0 | 1.7 | 0.00 | 0.00 | 0.00 | 77 | 1009.2 |
| 20260506103506 | 60 | 137 | 0.0 | 1.7 | 0.00 | 0.00 | 0.00 | 77 | 1009.2 |
| 20260506103012 | 60 | 202 | 0.0 | 1.7 | 0.00 | 0.00 | 0.00 | 76 | 1009.3 |
| 20260506102507 | 60 | 182 | 0.0 | 1.7 | 0.00 | 0.00 | 0.00 | 76 | 1009.3 |
| 20260506102004 | 60 | 159 | 0.9 | 1.7 | 0.00 | 0.00 | 0.00 | 76 | 1009.1 |
| 20260506101520 | 60 | 186 | 0.0 | 3.5 | 0.00 | 0.00 | 0.00 | 76 | 1009.1 |
| 20260506101007 | 60 | 122 | 0.9 | 3.5 | 0.00 | 0.00 | 0.00 | 76 | 1009.1 |
| 20260506100028 | 60 | 190 | 0.0 | 2.6 | 0.00 | 0.00 | 0.00 | 77 | 1009.3 |
| 20260506095503 | 59 | 140 | 0.0 | 2.6 | 0.00 | 0.00 | 0.00 | 76 | 1009.0 |
| 20260506095004 | 60 | 157 | 0.9 | 2.6 | 0.00 | 0.00 | 0.00 | 76 | 1009.1 |
| 20260506094506 | 59 | 141 | 0.9 | 2.6 | 0.00 | 0.00 | 0.00 | 77 | 1009.1 |
| 20260506094004 | 59 | 167 | 0.9 | 2.6 | 0.00 | 0.00 | 0.00 | 78 | 1009.0 |
| 20260506093504 | 59 | 135 | 0.0 | 1.7 | 0.00 | 0.00 | 0.00 | 77 | 1009.1 |
| 20260506093014 | 59 | 165 | 0.9 | 1.7 | 0.00 | 0.00 | 0.00 | 77 | 1009.1 |
| 20260506092509 | 58 | 169 | 0.0 | 1.7 | 0.00 | 0.00 | 0.00 | 78 | 1009.1 |
| 20260506092007 | 57 | 120 | 0.0 | 1.7 | 0.00 | 0.00 | 0.00 | 79 | 1008.9 |
| 20260506091519 | 57 | 120 | 0.0 | 1.7 | 0.00 | 0.00 | 0.00 | 79 | 1009.0 |
| 20260506091004 | 57 | 117 | 0.0 | 1.7 | 0.00 | 0.00 | 0.00 | 79 | 1009.0 |
| 20260506090506 | 57 | 121 | 0.0 | 1.7 | 0.00 | 0.00 | 0.00 | 78 | 1008.9 |
| 20260506085507 | 58 | 121 | 0.0 | 1.7 | 0.00 | 0.00 | 0.00 | 77 | 1009.0 |
| 20260506085007 | 58 | 121 | 0.0 | 2.6 | 0.00 | 0.00 | 0.00 | 77 | 1009.0 |
| 20260506084508 | 58 | 166 | 0.9 | 2.6 | 0.00 | 0.00 | 0.00 | 78 | 1008.9 |
| 20260506084003 | 57 | 95 | 0.0 | 1.7 | 0.00 | 0.00 | 0.00 | 78 | 1009.1 |
| 20260506083503 | 57 | 95 | 0.0 | 1.7 | 0.00 | 0.00 | 0.00 | 78 | 1009.0 |
| 20260506083010 | 57 | 95 | 0.0 | 1.7 | 0.00 | 0.00 | 0.00 | 78 | 1009.0 |
| 20260506082505 | 58 | 95 | 0.0 | 1.7 | 0.00 | 0.00 | 0.00 | 77 | 1009.0 |
| 20260506082004 | 58 | 95 | 0.0 | 1.7 | 0.00 | 0.00 | 0.00 | 77 | 1009.0 |
| 20260506081518 | 58 | 95 | 0.0 | 1.7 | 0.00 | 0.00 | 0.00 | 75 | 1009.0 |
| 20260506081010 | 59 | 188 | 0.0 | 1.7 | 0.00 | 0.00 | 0.00 | 75 | 1009.0 |
| 20260506080506 | 59 | 188 | 0.0 | 1.7 | 0.00 | 0.00 | 0.00 | 74 | 1009.0 |
| 20260506073503 | 61 | 179 | 0.0 | 2.6 | 0.00 | 0.00 | 0.00 | 68 | 1008.8 |
| 20260506073010 | 61 | 186 | 0.9 | 2.6 | 0.00 | 0.00 | 0.00 | 69 | 1008.7 |
| 20260506072504 | 61 | 231 | 0.0 | 1.7 | 0.00 | 0.00 | 0.00 | 69 | 1008.6 |
| 20260506072005 | 61 | 231 | 0.0 | 1.7 | 0.00 | 0.00 | 0.00 | 69 | 1008.6 |
| 20260506071514 | 61 | 231 | 0.0 | 1.7 | 0.00 | 0.00 | 0.00 | 68 | 1008.6 |
| 20260506071003 | 62 | 231 | 0.0 | 1.7 | 0.00 | 0.00 | 0.00 | 68 | 1008.6 |
| 20260506070504 | 62 | 184 | 0.0 | 2.6 | 0.00 | 0.00 | 0.00 | 66 | 1008.5 |
| 20260506062502 | 63 | 115 | 1.7 | 2.6 | 0.00 | 0.00 | 0.00 | 65 | 1008.3 |
| 20260506062003 | 63 | 163 | 0.9 | 3.5 | 0.00 | 0.00 | 0.00 | 65 | 1008.4 |
| 20260506061512 | 63 | 102 | 0.9 | 3.5 | 0.00 | 0.00 | 0.00 | 65 | 1008.5 |